Minatare, NE

6:53 PM MDT on September 24, 2016 (GMT -0600)
Heilig

Weather History for KBFF - August, 2013

Change the Weather History Date:

Monday, August 5, 2013

  Actual Average Record
Temperature  
Mean Temperature 74 °F 74 °F  
Max Temperature 89 °F 89 °F 102 °F (1979)
Min Temperature 58 °F 58 °F 48 °F (1904)
Degree Days  
Heating Degree Days 0 0  
Month to date heating degree days 0 0  
Since 1 June heating degree days 23 66  
Since 1 July heating degree days 2 6  
Cooling Degree Days 9 9  
Month to date cooling degree days 44 45  
Year to date cooling degree days 610 481  
Since 1 June cooling degree days 556 458  
Growing Degree Days 26 (Base 50)    
Moisture  
Dew Point 56 °F    
Average Humidity 61    
Maximum Humidity 90    
Minimum Humidity 31    
Precipitation  
Precipitation 0.00 in 0.05 in 0.94 in (2002)
Month to date precipitation T 0.26  
Year to date precipitation 7.06 11.26  
Snow  
Snow 0.00 in 0.00 in - ()
Month to date snowfall 0.0 0.0  
Since 1 July snowfall 0.0 0.0  
Snow Depth 0.00 in    
Sea Level Pressure  
Sea Level Pressure 29.90 in    
Wind  
Wind Speed 8 mph (East)    
Max Wind Speed 14 mph    
Max Gust Speed 20 mph    
Visibility 10 miles    
Events      
T = Trace of Precipitation, MM = Missing Value Source: NWS Daily Summary

Daily Weather History Graph

Daily Weather History Graph

Search for Another Location

Airport or City:

Trip Planner

Search our weather history database for the weather conditions in past years. The results will help you decide how hot, cold, wet, or windy it might be!

Date:

Astronomy

Aug. 05, 2013 Rise Set
Actual Time 5:52 AM MDT 8:07 PM MDT
Civil Twilight 5:21 AM MDT 8:38 PM MDT
Nautical Twilight 4:43 AM MDT 9:16 PM MDT
Astronomical Twilight 4:00 AM MDT 9:58 PM MDT
Moon 4:50 AM MDT (8/5) 7:08 PM MDT (8/5)
Length of Visible Light 15h 16m
Length of Day
14h 15m
Waning Crescent, 1% of the Moon is Illuminated
Aug 5
Waning Crescent
Aug 6
New
Aug 14
First Quarter
Aug 20
Full
Aug 28
Last Quarter

Hourly Weather History & Observations

Time (MDT) Temp. Heat Index Dew Point Humidity Pressure Visibility Wind Dir Wind Speed Gust Speed Precip Events Conditions
12:53 AM 63.0 °F - 55.0 °F 75% 29.90 in 10.0 mi Calm Calm - N/A   Clear
1:53 AM 61.0 °F - 57.0 °F 87% 29.87 in 10.0 mi ENE 5.8 mph - N/A   Clear
2:53 AM 62.1 °F - 57.9 °F 86% 29.85 in 10.0 mi NNE 3.5 mph - N/A   Clear
3:53 AM 62.1 °F - - N/A% 29.84 in 10.0 mi NNE 4.6 mph - N/A   Clear
4:53 AM 57.9 °F - - N/A% 29.84 in 10.0 mi NNW 3.5 mph - N/A   Clear
5:53 AM 64.0 °F - - N/A% 29.88 in 10.0 mi NNE 12.7 mph - N/A   Clear
6:06 AM 62.6 °F - - N/A% 30.04 in 7.0 mi NNE 11.5 mph - N/A   Partly Cloudy
6:20 AM 64.4 °F - - N/A% 30.05 in 6.0 mi NNE 6.9 mph - N/A   Haze
6:27 AM 64.4 °F - - N/A% 30.05 in 7.0 mi NNE 6.9 mph - N/A   Overcast
6:53 AM 66.9 °F - - N/A% 29.91 in 10.0 mi ENE 10.4 mph - N/A   Overcast
7:21 AM 69.8 °F - 64.4 °F 83% 30.07 in 10.0 mi ENE 6.9 mph - N/A   Mostly Cloudy
7:53 AM 70.0 °F - 64.0 °F 81% 29.94 in 10.0 mi ENE 9.2 mph - N/A   Overcast
8:48 AM 71.6 °F - 62.6 °F 73% 30.10 in 10.0 mi North - - N/A   Scattered Clouds
8:53 AM 73.9 °F - 63.0 °F 68% 29.96 in 10.0 mi ESE 11.5 mph - N/A   Scattered Clouds
9:53 AM 77.0 °F - 59.0 °F 54% 29.96 in 10.0 mi ESE 8.1 mph - N/A   Partly Cloudy
10:53 AM 79.0 °F - 57.0 °F 47% 29.96 in 10.0 mi ESE 8.1 mph - N/A   Clear
11:53 AM 82.9 °F 82.1 °F 55.9 °F 39% 29.94 in 10.0 mi Variable 6.9 mph - N/A   Clear
12:53 PM 84.0 °F 82.9 °F 55.0 °F 37% 29.93 in 10.0 mi Variable 5.8 mph - N/A   Clear
1:53 PM 84.9 °F 83.6 °F 55.0 °F 36% 29.91 in 10.0 mi North - - N/A   Clear
2:53 PM 87.1 °F 85.3 °F 55.0 °F 33% 29.87 in 10.0 mi ESE 9.2 mph - N/A   Clear
3:53 PM 89.1 °F 87.1 °F 55.0 °F 31% 29.85 in 10.0 mi ESE 10.4 mph - N/A   Clear
4:53 PM 88.0 °F 85.9 °F 54.0 °F 31% 29.86 in 10.0 mi East 6.9 mph - N/A   Clear
5:53 PM 87.1 °F 85.7 °F 55.9 °F 35% 29.82 in 10.0 mi East 11.5 mph - N/A   Clear
6:53 PM 82.9 °F 82.6 °F 57.9 °F 42% 29.82 in 10.0 mi ESE 10.4 mph - N/A   Clear
7:53 PM 81.0 °F 81.0 °F 57.0 °F 44% 29.81 in 10.0 mi SE 10.4 mph - N/A   Clear
8:53 PM 75.0 °F - 60.1 °F 60% 29.83 in 10.0 mi ESE 6.9 mph - N/A   Clear
9:53 PM 75.0 °F - 50.0 °F 41% 29.81 in 10.0 mi SSE 8.1 mph - N/A   Clear
10:53 PM 66.9 °F - 53.1 °F 61% 29.82 in 10.0 mi SE 8.1 mph - N/A   Clear
11:53 PM 66.0 °F - 55.9 °F 70% 29.81 in 10.0 mi Calm Calm - N/A   Clear